266P/Christensen (2007)

Japanese version
Home page
Updated on September 5, 2012

---------------------------------------------------------------------

* Profile

Designation 266P/2006 U5
Discovery Date October 27, 2006
Magnitude 18.0 mag
Discoverer E. J. Christensen (Catalina Sky Survey)

* Orbital Elements

Epoch 2007 Jan. 20.0 TT = JDT 2454120.5
T 2007 Jan. 18.90327 TT                                 MPC
q   2.3258604            (2000.0)            P               Q
n   0.14862605     Peri.   98.38009     -0.23300867     -0.97246009
a   3.5297133      Node     5.10347     +0.86702646     -0.21021856
e   0.3410625      Incl.    3.43036     +0.44042261     -0.10064557
P   6.63
From 348 observations 2006 Oct. 27-2012 Aug. 28, mean residual 0".75.

* Finding Charts

* Magnitudes Graph

        m1 = 12.5 + 5 log d + 10.0 log r

---------------------------------------------------------------------

The orbital elements are published on M.P.E.C. 2012-R04.
The charts are made with StellaNavigator Ver.2.0 for Windows (AstroArts / ASCII).
The magnitudes graphs are made with Comet for Windows.

---------------------------------------------------------------------

Copyright(C) Seiichi Yoshida (comet@aerith.net). All rights reserved.